This demonstration page uses our WeatherBlox Daily Observations layout. Learn more.

Left ArrowRight Arrow

39.01783, -85.05884

Hourly Observations for July 22, 2020

Temp ( °F °C ) Dew Point ( °F °C ) Humidity (%) Winds ( mph kmh ) Pressure ( in mb ) Visibility ( mi km ) Precip ( " mm )
12:52 am 00:52 Cloudy 77 25 67 19.4 71 71 SW 5 7 30.00 1016 10 16 0.00 0.00
1:01 am 01:01 Cloudy with Thunderstorms 78 25.6 67 19.4 69 69 WNW 17 28 30.01 1016 10 16 0.00 0.00
1:23 am 01:23 Cloudy with Strong Thunderstorms 74 23.3 66 18.9 76 76 WNW 23 37 30.05 1018 2 3 0.00 0.00
1:27 am 01:27 Cloudy with Strong Thunderstorms 71 21.7 67 19.4 87 87 NW 18 30 30.05 1018 2 2 0.00 0.00
1:33 am 01:33 Cloudy with Thunderstorms 71 21.7 67 19.4 87 87 NNW 14 22 30.04 1017 4 6 0.23 5.84
1:52 am 01:52 Cloudy with Nearby Thunderstorms 71 21.7 67 19.4 87 87 NNW 9 15 30.02 1017 9 14 0.26 6.60
2:07 am 02:07 Cloudy with Light Rain 71 21.7 67 19.4 87 87 NW 8 13 30.02 1017 10 16 0.00 0.00
2:52 am 02:52 Cloudy with Light Rain 70 21.1 67 19.4 90 90 SSW 7 11 30.02 1017 5 8 0.02 0.51
3:52 am 03:52 Cloudy 71 21.7 67 19.4 87 87 SE 12 19 30.00 1016 10 16 0.00 0.00
4:52 am 04:52 Cloudy 70 21.1 67 19.4 90 90 Calm 29.99 1016 10 16 0.00 0.00
5:52 am 05:52 Cloudy 70 21.1 68 20 93 93 Calm 30.01 1016 10 16 0.00 0.00
6:52 am 06:52 Cloudy with Light Rain 71 21.7 67 19.4 87 87 WNW 9 15 30.04 1017 8 13 0.00 0.00
7:34 am 07:34 Cloudy 70 21.1 68 20 93 93 S 10 17 30.06 1018 10 16 0.01 0.25
7:52 am 07:52 Cloudy 70 21.1 68 20 93 93 SSW 5 7 30.05 1018 9 14 0.01 0.25
8:00 am 08:00 Cloudy with Rain 70 21.1 68 20 93 93 SW 6 9 30.06 1018 3 4 0.00 0.00
8:05 am 08:05 Cloudy with Light Rain 70 21.1 68 20 93 93 SSW 3 6 30.06 1018 5 8 0.03 0.76
8:10 am 08:10 Cloudy with Light Rain 70 21.1 68 20 93 93 S 3 6 30.06 1018 8 13 0.03 0.76
8:28 am 08:28 Cloudy with Rain 70 21.1 68 20 93 93 S 10 17 30.05 1018 3 4 0.03 0.76
8:40 am 08:40 Cloudy with Light Rain 70 21.1 68 20 93 93 S 7 11 30.04 1017 8 13 0.06 1.52
8:52 am 08:52 Cloudy with Light Rain 71 21.7 68 20 90 90 SSE 8 13 30.04 1017 7 11 0.08 2.03
9:52 am 09:52 Cloudy 73 22.8 69 20.6 87 87 SSE 9 15 30.04 1017 10 16 0.03 0.76
10:52 am 10:52 Cloudy 75 23.9 70 21.1 84 84 S 12 19 30.05 1018 10 16 0.00 0.00
11:52 am 11:52 Cloudy 79 26.1 70 21.1 74 74 SSW 12 19 30.05 1018 10 16 0.00 0.00
12:28 pm 12:28 Cloudy with Thunderstorms 79 26.1 71 21.7 77 77 WSW 9 15 30.05 1018 9 14 0.00 0.00
12:49 pm 12:49 Cloudy with Strong Thunderstorms 73 23 70 21 89 89 NW 35 56 30.10 1019 1 1 0.00 0.00
12:52 pm 12:52 Cloudy with Strong Thunderstorms 69 20.6 66 18.9 90 90 NW 29 46 30.10 1019 1 1 0.00 0.00
12:58 pm 12:58 Cloudy with Strong Thunderstorms 69 20.6 66 18.9 90 90 NW 16 26 30.12 1020 1 1 0.43 10.92
1:03 pm 13:03 Cloudy with Strong Thunderstorms 69 20.6 67 19.4 93 93 NNW 10 17 30.11 1019 2 3 0.58 14.73
1:37 pm 13:37 Cloudy with Thunderstorms 69 20.6 69 20.6 100 100 SSW 3 6 30.07 1018 3 4 0.93 23.62
1:52 pm 13:52 Cloudy with Thunderstorms 69 20.6 69 20.6 100 100 Calm 30.05 1018 3 4 0.96 24.38
2:15 pm 14:15 Cloudy with Nearby Thunderstorms 69 20.6 68 20 96 96 SSE 8 13 30.06 1018 3 4 0.06 1.52
2:18 pm 14:18 Cloudy with Nearby Thunderstorms 70 21.1 68 20 93 93 SSE 8 13 30.05 1018 6 10 0.06 1.52
2:52 pm 14:52 Mostly Cloudy 71 21.7 70 21.1 96 96 SE 10 17 30.05 1018 10 16 0.08 2.03
3:52 pm 15:52 Mostly Cloudy 73 22.8 70 21.1 90 90 SSE 5 7 30.01 1016 10 16 0.00 0.00
5:52 pm 17:52 Mostly Cloudy 82 27.8 72 22.2 72 72 S 6 9 29.97 1015 10 16 0.00 0.00
6:52 pm 18:52 Mostly Cloudy 82 27.8 73 22.8 74 74 SSW 5 7 29.98 1015 10 16 0.00 0.00
7:52 pm 19:52 Mostly Cloudy 79 26.1 73 22.8 82 82 S 5 7 29.98 1015 10 16 0.00 0.00
8:52 pm 20:52 Cloudy 78 25.6 73 22.8 85 85 S 7 11 29.98 1015 10 16 0.00 0.00
9:52 pm 21:52 Cloudy 77 25 73 22.8 88 88 S 3 6 30.00 1016 10 16 0.00 0.00
10:52 pm 22:52 Cloudy 76 24.4 72 22.2 88 88 S 7 11 30.03 1017 10 16 0.00 0.00
11:52 pm 23:52 Cloudy 74 23.3 70 21.1 88 88 SSW 8 13 30.02 1017 10 16 0.00 0.00

Powered by AerisWeather